TimeMDT,TemperatureF,Dew PointF,Humidity,Sea Level PressureIn,VisibilityMPH,Wind Direction,Wind SpeedMPH,Gust SpeedMPH,PrecipitationIn,Events,Conditions,WindDirDegrees,DateUTC
12:14 AM,42.8,37.4,81,30.71,-9999.0,ENE,15.0,-,N/A,,Clear,70,2013-07-03 06:14:00
12:34 AM,42.8,37.4,81,30.71,-9999.0,ENE,15.0,-,N/A,,Unknown,70,2013-07-03 06:34:00
12:54 AM,41.0,37.4,87,30.70,-9999.0,ENE,15.0,-,N/A,,Unknown,70,2013-07-03 06:54:00
1:14 AM,42.8,37.4,81,30.70,-9999.0,ENE,12.7,-,N/A,,Unknown,70,2013-07-03 07:14:00
1:34 AM,42.8,37.4,81,30.70,-9999.0,East,8.1,-,N/A,,Scattered Clouds,80,2013-07-03 07:34:00
1:54 AM,42.8,35.6,76,30.70,-9999.0,ENE,4.6,-,N/A,,Scattered Clouds,70,2013-07-03 07:54:00
2:14 AM,42.8,35.6,76,30.70,-9999.0,ENE,3.5,-,N/A,,Clear,60,2013-07-03 08:14:00
2:34 AM,44.6,35.6,71,30.69,-9999.0,Calm,Calm,-,N/A,,Clear,0,2013-07-03 08:34:00
2:54 AM,44.6,33.8,66,30.68,-9999.0,SW,8.1,-,N/A,,Clear,220,2013-07-03 08:54:00
3:14 AM,42.8,33.8,70,30.68,-9999.0,SSW,8.1,-,N/A,,Clear,200,2013-07-03 09:14:00
3:34 AM,42.8,33.8,70,30.68,-9999.0,SSW,8.1,-,N/A,,Clear,210,2013-07-03 09:34:00
3:54 AM,42.8,35.6,76,30.67,-9999.0,SSW,8.1,-,N/A,,Clear,210,2013-07-03 09:54:00
4:14 AM,42.8,33.8,70,30.66,-9999.0,SW,12.7,-,N/A,,Clear,230,2013-07-03 10:14:00
4:34 AM,42.8,33.8,70,30.66,-9999.0,WSW,13.8,-,N/A,,Clear,240,2013-07-03 10:34:00
4:54 AM,42.8,33.8,70,30.66,-9999.0,West,16.1,-,N/A,,Clear,260,2013-07-03 10:54:00
5:14 AM,42.8,33.8,70,30.66,-9999.0,WSW,15.0,-,N/A,,Clear,250,2013-07-03 11:14:00
5:34 AM,42.8,33.8,70,30.66,-9999.0,WSW,16.1,-,N/A,,Clear,250,2013-07-03 11:34:00
5:54 AM,42.8,33.8,70,30.66,-9999.0,WSW,11.5,-,N/A,,Clear,250,2013-07-03 11:54:00
6:14 AM,44.6,33.8,66,30.67,-9999.0,West,9.2,-,N/A,,Clear,270,2013-07-03 12:14:00
6:34 AM,44.6,32.0,61,30.67,-9999.0,Calm,Calm,-,N/A,,Clear,0,2013-07-03 12:34:00
6:54 AM,44.6,30.2,57,30.67,-9999.0,WNW,5.8,-,N/A,,Clear,300,2013-07-03 12:54:00
7:14 AM,46.4,28.4,50,30.67,-9999.0,North,5.8,-,N/A,,Clear,360,2013-07-03 13:14:00
7:34 AM,50.0,24.8,37,30.67,-9999.0,North,5.8,-,N/A,,Clear,350,2013-07-03 13:34:00
7:54 AM,50.0,23.0,35,30.68,-9999.0,ENE,8.1,-,N/A,,Clear,60,2013-07-03 13:54:00
8:14 AM,51.8,23.0,33,30.68,-9999.0,ENE,9.2,-,N/A,,Clear,70,2013-07-03 14:14:00
8:34 AM,53.6,23.0,30,30.68,-9999.0,ENE,6.9,-,N/A,,Clear,70,2013-07-03 14:34:00
8:54 AM,53.6,23.0,30,30.68,-9999.0,East,4.6,-,N/A,,Clear,100,2013-07-03 14:54:00
9:14 AM,50.0,32.0,50,30.68,-9999.0,West,4.6,-,N/A,,Clear,280,2013-07-03 15:14:00
9:34 AM,51.8,32.0,47,30.68,-9999.0,West,6.9,-,N/A,,Clear,260,2013-07-03 15:34:00
9:54 AM,51.8,32.0,47,30.68,-9999.0,West,5.8,-,N/A,,Clear,260,2013-07-03 15:54:00
10:14 AM,53.6,32.0,44,30.67,-9999.0,WSW,11.5,17.3,N/A,,Clear,250,2013-07-03 16:14:00
10:34 AM,51.8,32.0,47,30.67,-9999.0,West,9.2,-,N/A,,Clear,280,2013-07-03 16:34:00
10:54 AM,53.6,32.0,44,30.67,-9999.0,WNW,8.1,-,N/A,,Scattered Clouds,290,2013-07-03 16:54:00
11:14 AM,53.6,32.0,44,30.67,-9999.0,WSW,4.6,-,N/A,,Scattered Clouds,240,2013-07-03 17:14:00
11:34 AM,53.6,32.0,44,30.67,-9999.0,Calm,Calm,-,N/A,,Mostly Cloudy,0,2013-07-03 17:34:00
11:54 AM,55.4,32.0,41,30.67,-9999.0,Calm,Calm,-,N/A,,Mostly Cloudy,0,2013-07-03 17:54:00
12:14 PM,59.0,32.0,36,30.67,-9999.0,SSW,5.8,-,N/A,,Mostly Cloudy,210,2013-07-03 18:14:00
12:34 PM,57.2,32.0,38,30.67,-9999.0,South,5.8,-,N/A,,Mostly Cloudy,180,2013-07-03 18:34:00
12:54 PM,55.4,32.0,41,30.66,-9999.0,WSW,3.5,-,N/A,,Overcast,250,2013-07-03 18:54:00
1:14 PM,55.4,32.0,41,30.65,-9999.0,SW,8.1,-,N/A,,Overcast,220,2013-07-03 19:14:00
1:34 PM,55.4,32.0,41,30.65,-9999.0,SW,11.5,-,N/A,,Overcast,230,2013-07-03 19:34:00
1:54 PM,59.0,32.0,36,30.65,-9999.0,South,5.8,-,N/A,,Mostly Cloudy,170,2013-07-03 19:54:00
2:14 PM,55.4,30.2,38,30.65,-9999.0,Calm,Calm,-,N/A,,Overcast,0,2013-07-03 20:14:00
2:34 PM,60.8,30.2,31,30.64,-9999.0,East,5.8,-,N/A,,Mostly Cloudy,90,2013-07-03 20:34:00
2:54 PM,60.8,28.4,29,30.63,-9999.0,ENE,8.1,-,N/A,,Scattered Clouds,70,2013-07-03 20:54:00
3:14 PM,60.8,23.0,23,30.64,-9999.0,North,6.9,-,N/A,,Mostly Cloudy,350,2013-07-03 21:14:00
3:34 PM,60.8,23.0,23,30.62,-9999.0,NE,10.4,16.1,N/A,,Mostly Cloudy,40,2013-07-03 21:34:00
3:54 PM,59.0,30.2,34,30.62,-9999.0,NE,16.1,-,N/A,,Mostly Cloudy,50,2013-07-03 21:54:00
4:14 PM,55.4,30.2,38,30.60,-9999.0,ENE,27.6,33.4,N/A,,Mostly Cloudy,60,2013-07-03 22:14:00
4:34 PM,53.6,32.0,44,30.61,-9999.0,ENE,24.2,-,N/A,,Overcast,60,2013-07-03 22:34:00
4:54 PM,51.8,32.0,47,30.60,-9999.0,ENE,33.4,-,N/A,,Overcast,60,2013-07-03 22:54:00
5:14 PM,51.8,32.0,47,30.63,-9999.0,ENE,17.3,21.9,N/A,,Mostly Cloudy,60,2013-07-03 23:14:00
5:34 PM,51.8,32.0,47,30.63,-9999.0,NNE,17.3,-,N/A,,Mostly Cloudy,30,2013-07-03 23:34:00
5:54 PM,51.8,33.8,50,30.63,-9999.0,North,12.7,18.4,N/A,,Scattered Clouds,350,2013-07-03 23:54:00
6:14 PM,53.6,32.0,44,30.62,-9999.0,NW,11.5,-,N/A,,Scattered Clouds,310,2013-07-04 00:14:00
6:34 PM,53.6,32.0,44,30.63,-9999.0,North,11.5,20.7,N/A,,Scattered Clouds,360,2013-07-04 00:34:00
6:54 PM,51.8,30.2,44,30.64,-9999.0,North,10.4,21.9,N/A,,Mostly Cloudy,360,2013-07-04 00:54:00
7:14 PM,51.8,32.0,47,30.64,-9999.0,NE,8.1,-,N/A,,Overcast,40,2013-07-04 01:14:00
7:34 PM,50.0,32.0,50,30.63,-9999.0,NNE,15.0,-,N/A,,Overcast,30,2013-07-04 01:34:00
7:54 PM,50.0,32.0,50,30.62,-9999.0,ENE,19.6,-,N/A,,Overcast,70,2013-07-04 01:54:00
8:14 PM,48.2,33.8,58,30.62,-9999.0,ENE,27.6,35.7,N/A,,Mostly Cloudy,70,2013-07-04 02:14:00
8:34 PM,44.6,37.4,76,30.63,-9999.0,ENE,20.7,25.3,N/A,,Overcast,60,2013-07-04 02:34:00
8:54 PM,44.6,37.4,76,30.63,-9999.0,ENE,15.0,-,N/A,,Mostly Cloudy,70,2013-07-04 02:54:00
9:14 PM,44.6,35.6,71,30.63,-9999.0,ENE,16.1,-,N/A,,Overcast,70,2013-07-04 03:14:00
9:34 PM,44.6,35.6,71,30.66,-9999.0,ENE,13.8,-,N/A,,Scattered Clouds,70,2013-07-04 03:34:00
9:54 PM,44.6,35.6,71,30.65,-9999.0,ENE,15.0,-,N/A,,Scattered Clouds,70,2013-07-04 03:54:00
10:14 PM,44.6,35.6,71,30.67,-9999.0,ENE,11.5,15.0,N/A,,Clear,60,2013-07-04 04:14:00
10:34 PM,46.4,33.8,62,30.66,-9999.0,WNW,5.8,-,N/A,,Clear,290,2013-07-04 04:34:00
10:54 PM,46.4,33.8,62,30.66,-9999.0,West,12.7,-,N/A,,Clear,280,2013-07-04 04:54:00
11:14 PM,46.4,33.8,62,30.66,-9999.0,West,13.8,-,N/A,,Clear,280,2013-07-04 05:14:00
11:34 PM,46.4,32.0,57,30.66,-9999.0,WNW,9.2,-,N/A,,Clear,300,2013-07-04 05:34:00
11:54 PM,44.6,32.0,61,30.66,-9999.0,West,11.5,-,N/A,,Clear,280,2013-07-04 05:54:00